Regional Weather Roundup
Issued by NWS

Home | Current Version | Previous Version | Text Only | Print | Product List | Glossary On
Versions: 1 2 3 4 5 6 7 8 9 10 11 12 13 14 15 16 17 18 19 20 21 22 23 24 25 26 27 28 29 30 31 32 33 34 35 36 37 38 39 40 41 42 43 44 45 46 47 48 49 50
000
ASUS44 KMEG 252310
RWRTN
TENNESSEE HOURLY STATE WEATHER ROUNDUP
NATIONAL WEATHER SERVICE MEMPHIS TN
600 PM CDT FRI JUL 25 2014

TNZ002-004-019-021-049-052-054-088>092-260000-
WEST TENNESSEE

CITY           SKY/WX    TMP DP  RH WIND       PRES   REMARKS
MEMPHIS INTL   PTSUNNY   87  60  40 NE5       30.00F
NWS MEMPHIS      N/A     84 N/A N/A MISG        N/A
JACKSON        PTSUNNY   81  66  60 CALM      30.01F
DYERSBURG      PTSUNNY   81  61  50 SE5       30.00F
UNION CITY     SUNNY     81  63  54 E5        29.98F
PARIS          PTSUNNY   78  61  55 SE3       30.00F
LEXINGTON      SUNNY     79  64  61 CALM      30.01F
SAVANNAH       PTSUNNY   83  67  58 NE3       30.03S
$$

TNZ008-025-027-028-033-062-065-066-260000-
NORTH MIDDLE TENNESSEE

CITY           SKY/WX    TMP DP  RH WIND       PRES   REMARKS
NASHVILLE      PTSUNNY   83  57  41 NW9       30.02F
DICKSON        PTSUNNY   79  59  50 N5        30.03F
PORTLAND       CLOUDY    81  59  47 CALM      30.01F
CLARKSVILLE    PTSUNNY   82  57  42 NE6       29.99F
LEBANON        PTSUNNY   83  55  37 CALM      30.01F
SMYRNA         PTSUNNY   87  60  40 CALM      30.02F
MURFREESBORO   PTSUNNY   83  59  44 VRB5      30.02S
COOKEVILLE     SUNNY     81  61  50 NW3       30.05S
LIVINGSTON     SUNNY     77  59  53 NW5       30.06
GALLATIN       PTSUNNY   85  58  39 N8        30.02F
CROSSVILLE     SUNNY     76  57  51 NW5       30.09R
$$

TNZ061-075-076-078-094-096-097-260000-
SOUTH MIDDLE TENNESSEE

CITY           SKY/WX    TMP DP  RH WIND       PRES   REMARKS
LEWISBURG      PTSUNNY   82  62  50 NW3       30.03S
FAYETTEVILLE   SUNNY     81  59  47 N8        30.03S
TULLAHOMA      SUNNY     81  61  50 NW5       30.05F
WINCHESTER     SUNNY     82  61  47 CALM      30.03F
MCMINNVILLE    SUNNY     81  63  54 VRB7      30.05S
COLUMBIA       SUNNY     82  64  54 N6        30.02F
SHELBYVILLE    SUNNY     82  63  51 N3        30.04F
$$

TNZ017-018-042-046-047-260000-
NORTHEAST TENNESSEE

CITY           SKY/WX    TMP DP  RH WIND       PRES   REMARKS
TRI CITIES     MOSUNNY   81  60  48 W5        30.05R
ELIZABETHTON   CLEAR     79  63  57 W3        30.06R
$$

TNZ012-013-036-069-073-074-260000-
CENTRAL EAST TENNESSEE

CITY           SKY/WX    TMP DP  RH WIND       PRES   REMARKS
KNOXVILLE      MOSUNNY   82  59  45 SW7       30.02R
OAK RIDGE      SUNNY     84  62  47 VRB5      30.03R
GATLINBURG     CLEAR     82  63  51 W3        30.02S
MORRISTOWN     CLEAR     81  61  50 N3        30.05S
$$

TNZ083-085-099-260000-
SOUTHEAST TENNESSEE

CITY           SKY/WX    TMP DP  RH WIND       PRES   REMARKS
CHATTANOOGA    MOSUNNY   86  58  38 NW5       30.01S
$$

SKY/WX REPORTED AS FAIR MEANS FEW OR NO CLOUDS BELOW
12 THOUSAND FEET.



USA.gov is the U.S. government's official web portal to all federal, state and local government web resources and services.